Content
SEND FEEDBACK

Daily
Averages
Monthly
Summary
United States of America

IAEGER, WEST VIRGINIA


Home > North America > United States > West Virginia
Elevation: 98 feet     Latitude: 37 28N     Longitude: 081 49W

WEATHER
 
SELECT A DAY
Number of Records: 233,039;   Date Range: 8/16/04 - 8/28/14
 
SHARE

PRINT THIS DATA

[ ← Previous Day ]
WEATHER ALMANAC - JANUARY 31, 2013
[ Next Day → ]
[ °C ]   °F
Weather ElementAverageHighLow
Temperature33 °F41.5 °F (12:35 am)29.3 °F (9:55 am)
Dewpoint26.6 °F39.7 °F (12:35 am)21.7 °F (3:35 pm)
Humidity77.5 %95 % (9:55 am)63 % (3:15 pm)
Barometer29.85 in29.96 in (5:15 pm)29.54 in (12:35 am)

Weather ElementAverage
Weather ElementTotal
Precipitation---
Heating Degree Days29.6 (Base 65)
Averaged from 67 records on January 31, 2013
WEATHER CONDITIONS BREAKOUT
WIND DIRECTION BREAKOUT
WEATHER BY HOUR - JANUARY 31, 2013
[ °C ]   °F
Local TimeTemperatureDewpointHumidityBarometerVisibilityWind DirectionWind SpeedGust SpeedPrecipitationEventsConditions
12:35 AM41.5 °F39.7 °F93 %29.54 in10.0 miNorthOvercast
12:55 AM41.4 °F39.7 °F94 %29.55 in10.0 miNorthOvercast
1:15 AM41.0 °F39.4 °F94 %29.57 in7.0 miNorthOvercast
1:55 AM38.7 °F36.5 °F92 %29.60 in7.0 miNorthOvercast
2:15 AM37.9 °F34.9 °F89 %29.63 in7.0 miNorthOvercast
2:35 AM37.8 °F32.7 °F82 %29.63 in10.0 miNorthOvercast
2:55 AM37.6 °F31.8 °F80 %29.65 in10.0 miNorthOvercast
3:15 AM36.9 °F30.9 °F79 %29.67 in7.0 miNorthSnowLight Snow
3:35 AM35.6 °F30.2 °F81 %29.68 in5.0 miNorthSnowLight Snow
3:55 AM35.1 °F28.0 °F76 %29.70 in7.0 miNorthOvercast
4:15 AM34.7 °F27.3 °F74 %29.70 in10.0 miNorthOvercast
4:55 AM33.8 °F28.4 °F81 %29.73 in7.0 miNorthSnowLight Snow
5:15 AM33.4 °F27.7 °F79 %29.73 in7.0 miNorthSnowLight Snow
5:35 AM33.4 °F26.2 °F75 %29.75 in10.0 miNorthOvercast
5:55 AM33.1 °F25.7 °F74 %29.75 in10.0 miNorthOvercast
6:15 AM32.7 °F25.7 °F75 %29.77 in10.0 miNorthSnowLight Snow
6:35 AM32.5 °F24.8 °F73 %29.78 in10.0 miNorthOvercast
6:55 AM32.0 °F25.9 °F78 %29.79 in7.0 miNorthSnowLight Snow
7:15 AM32.0 °F25.7 °F78 %29.79 in10.0 miNorthOvercast
7:35 AM32.0 °F26.4 °F80 %29.80 in5.0 miNorthSnowLight Snow
7:55 AM31.5 °F27.3 °F85 %29.81 in10.0 miNorthSnowLight Snow
8:15 AM31.5 °F27.1 °F84 %29.82 in5.0 miNorthSnowLight Snow
8:35 AM31.6 °F27.1 °F83 %29.84 in3.0 miNorthSnowLight Snow
8:55 AM31.1 °F27.1 °F85 %29.85 in1.5 miNorthSnowLight Snow
9:15 AM30.7 °F28.6 °F92 %29.87 in0.8 miNorthSnowLight Snow
9:35 AM31.1 °F27.9 °F88 %29.88 in2.0 miNorthSnowLight Snow
9:55 AM29.3 °F28.0 °F95 %29.89 in0.2 miNorthSnowHeavy Snow
10:15 AM29.5 °F28.0 °F94 %29.91 in1.2 miNorthSnowLight Snow
10:35 AM30.7 °F24.8 °F79 %29.92 in1.2 miNorthSnowLight Snow
10:55 AM31.5 °F22.6 °F70 %29.92 in10.0 miNorthOvercast
11:15 AM31.1 °F22.5 °F70 %29.92 in10.0 miNorthOvercast
11:35 AM31.6 °F22.6 °F69 %29.92 in10.0 miNorthOvercast
11:55 AM32.0 °F22.6 °F68 %29.92 in10.0 miNorthOvercast
12:15 PM31.3 °F23.5 °F73 %29.92 in7.0 miNorthSnowLight Snow
12:35 PM30.2 °F25.7 °F83 %29.92 in1.2 miNorthSnowLight Snow
12:55 PM32.0 °F24.3 °F73 %29.91 in7.0 miNorthOvercast
1:15 PM32.0 °F23.0 °F69 %29.91 in10.0 miNorthOvercast
1:35 PM32.0 °F23.0 °F69 %29.91 in10.0 miNorthOvercast
1:55 PM32.4 °F22.6 °F67 %29.91 in10.0 miNorthOvercast
2:15 PM32.0 °F23.2 °F70 %29.92 in10.0 miNorthOvercast
2:35 PM32.2 °F23.0 °F69 %29.93 in10.0 miNorthOvercast
2:55 PM33.1 °F23.4 °F67 %29.93 in10.0 miNorthOvercast
3:15 PM34.2 °F22.8 °F63 %29.93 in10.0 miNorthOvercast
3:35 PM32.9 °F21.7 °F64 %29.94 in10.0 miNorthOvercast
3:55 PM32.4 °F22.5 °F67 %29.94 in10.0 miNorthOvercast
4:15 PM32.2 °F23.7 °F71 %29.94 in10.0 miNorthMostly Cloudy
4:35 PM32.2 °F22.8 °F68 %29.95 in10.0 miNorthOvercast
4:55 PM32.2 °F23.4 °F70 %29.95 in10.0 miNorthOvercast
5:15 PM32.2 °F22.8 °F68 %29.96 in10.0 miNorthOvercast
5:35 PM32.0 °F23.5 °F71 %29.96 in10.0 miNorthOvercast
5:55 PM32.0 °F23.4 °F70 %29.96 in10.0 miNorthOvercast
6:15 PM32.0 °F23.5 °F71 %29.96 in10.0 miNorthOvercast
6:35 PM32.0 °F23.5 °F71 %29.95 in10.0 miNorthOvercast
6:55 PM32.0 °F24.1 °F73 %29.96 in10.0 miNorthOvercast
7:15 PM32.0 °F24.4 °F74 %29.96 in10.0 miNorthOvercast
7:35 PM32.0 °F24.6 °F74 %29.96 in10.0 miNorthOvercast
7:55 PM32.0 °F24.8 °F75 %29.95 in10.0 miNorthOvercast
8:15 PM32.0 °F25.2 °F76 %29.96 in10.0 miNorthOvercast
8:35 PM31.6 °F26.8 °F82 %29.94 in10.0 miNorthOvercast
9:15 PM31.6 °F27.5 °F85 %29.94 in10.0 miNorthOvercast
9:35 PM31.8 °F27.3 °F83 %29.94 in10.0 miNorthOvercast
9:55 PM32.0 °F27.5 °F83 %29.93 in10.0 miNorthOvercast
10:15 PM32.4 °F27.5 °F82 %29.92 in10.0 miNorthOvercast
10:35 PM33.8 °F26.4 °F74 %29.91 in10.0 miNorthOvercast
11:15 PM33.3 °F27.9 °F81 %29.89 in10.0 miNorthOvercast
11:35 PM33.1 °F28.4 °F83 %29.90 in10.0 miNorthSnowLight Snow
11:55 PM33.1 °F29.1 °F85 %29.89 in5.0 miNorthSnowLight Snow
Hourly data recorded from KI16, located miles away from Iaeger, West Virginia







STORIES FROM OUR PARTNERS